Weather in Nyala

Sudan     12°02′45″N   24°53′03″E
temp.,
°C
wind,
m/s
gust,
m/s
humid.,
%
clouds,
%
prec.,
mm/h
press.,
hPa
HPBL,
m
10 may, mon
mon1023:00+30sse8839100 0.6 1011563
02:00+27sse465878 0.6 1011636
05:00+25s356774 0.0 1011295
08:00+26ssw556394 0.0 1013659
11:00+32sw553917 0.0 10121381
14:00+36w242711 0.0 10083355
17:00+28ene11135081 0.1 1008500
20:00+30ese473944 0.3 1009335
11 may, tue
tue1123:00+30sse274566 0.0 1010484
02:00+28s475162 0.0 1010314
05:00+26sw23555 0.0 101171
08:00+29sw33485 0.0 1012487
11:00+33s22335 0.0 10121686
14:00+37ese36237 0.0 10083416
17:00+37e54208 0.0 10062950
20:00+32ese48312 0.0 1008406
12 may, wed
wed1223:00+31se611345 0.0 1010544
02:00+29sse5114910 0.0 1010723
05:00+26sse495516 0.0 1011460
08:00+27s4652100 0.0 1013534
11:00+33s4434100 0.0 10111233
14:00+37se36225 0.0 10083061
17:00+37e65166 0.0 10063630
20:00+34ese46214 0.0 1007112
13 may, thu
thu1323:00+32sse592820 0.0 1008254
02:00+28s374925 0.0 1009311
05:00+26s11555 0.0 101011
08:00+29sse24470 0.0 1012658
11:00+34sse44335 0.0 10111568
14:00+38e552048 0.0 10074239
17:00+36n552296 0.0 10062133
20:00+33sse572833 0.3 1006278
14 may, fri
fri1423:00+30se594052 0.0 1009367
02:00+28sse244597 0.0 100892
05:00+27ene12516 0.0 101011
08:00+30sse23445 0.0 1011494
11:00+34ese23315 0.0 10111508
14:00+38e66165 0.0 10083633
17:00+38e56155 0.0 10053663
20:00+34se33195 0.0 100646